Regional Weather Roundup
Issued by NWS Upton, NY

Current Version | Previous Version | Graphics & Text | Print | Product List | Glossary Off
Versions: 1 2 3 4 5 6 7 8 9 10 11 12 13 14 15 16 17 18 19 20 21 22 23 24 25 26 27 28 29 30 31 32 33 34 35 36 37 38 39 40 41 42 43 44 45 46 47 48 49 50

000
ASUS41 KOKX 021004
RWROKX

REGIONAL WEATHER ROUNDUP
NATIONAL WEATHER SERVICE NEW YORK NY
600 AM EDT SUN AUG 02 2015

NOTE: "FAIR" INDICATES FEW OR NO CLOUDS BELOW 12,000 FEET WITH NO
SIGNIFICANT WEATHER AND/OR OBSTRUCTIONS TO VISIBILITY.

NYZ071-072-176-178-NJZ106-104-021100-
NEW YORK CITY METRO AREA


CITY           SKY/WX    TMP DP  RH WIND       PRES   REMARKS
CENTRAL PARK   CLEAR     71  56  58 CALM      29.92R
LAGUARDIA APRT PTCLDY    74  57  55 CALM      29.88R
KENNEDY INTL   PTCLDY    72  56  57 CALM      29.89R
NEWARK/LIBERTY PTCLDY    69  58  67 SW3       29.89R
BRNX BOT. GARD   N/A     68  57  68 E3        29.90R
TETERBORO      CLEAR     68  56  65 CALM      29.88R
$$

NYZ177-179-078>081-021100-
LONG ISLAND NEW YORK

CITY           SKY/WX    TMP DP  RH WIND       PRES   REMARKS
FARMINGDALE    CLEAR     68  58  70 CALM      29.89R
ISLIP          PTCLDY    65  60  84 CALM      29.87R
SHIRLEY        CLEAR     62  59  90 CALM      29.89R
WESTHAMPTON    CLEAR     58  57  97 CALM      29.90R
MONTAUK POINT    N/A     65  60  84 CALM      29.90R
$$

NYZ052-065-067-021100-
HUDSON VALLEY

CITY           SKY/WX    TMP DP  RH WIND       PRES   REMARKS
WHITE PLAINS   CLEAR     64  60  87 NW5       29.89R
NEWBURGH       CLEAR     61  57  88 W7        29.91R
MONTGOMERY     CLEAR     58  56  93 MISG      29.90R
POUGHKEEPSIE   CLEAR     59  56  89 CALM      29.89R
ALBANY         PTCLDY    58  54  86 SE3       29.87S
$$

NJZ001-105-106-008-010-013-015-019>022-104-021100-
NEW JERSEY

CITY           SKY/WX    TMP DP  RH WIND       PRES   REMARKS
NEWARK/LIBERTY PTCLDY    69  58  67 SW3       29.89R
TETERBORO      CLEAR     68  56  65 CALM      29.88R
CALDWELL       CLEAR     62  57  83 CALM      29.90R
MORRISTOWN     CLEAR     57  54  88 CALM      29.90S
SOMERVILLE     CLEAR     58  56  93 CALM      29.89R FOG
SUSSEX         CLEAR     56  53  90 CALM      29.91S
ANDOVER          N/A     57  56  96 CALM      29.92R
TRENTON        CLEAR     65  59  81 NW5       29.90R
MILLVILLE      CLEAR     63  61  93 CALM      29.90R
ATLANTIC CITY  CLEAR     67  63  87 NW3       29.90R
WRIGHTSTOWN    NOT AVBL
TOMS RIVER       N/A     59  55  88 CALM      29.90R
BELMAR         CLEAR     64  55  72 NW6       29.90R
$$

PAZ047>061-062-071-021100-
EASTERN PENNSYLVANIA

CITY           SKY/WX    TMP DP  RH WIND       PRES   REMARKS
PHILADELPHIA   PTCLDY    71  57  61 CALM      29.91R
ALLENTOWN      CLEAR     60  56  86 CALM      29.91S
SCRANTON       CLEAR     59  55  87 E6        29.93S
$$

CTZ002-004>006-009-010-012-RIZ004-006-007-MAZ004-011-015-021100-
SOUTHERN NEW ENGLAND
 IN CT

CITY           SKY/WX    TMP DP  RH WIND       PRES   REMARKS
BRADLEY INTL   CLEAR     58  55  90 CALM      29.87R
HARTFORD       PTCLDY    63  61  93 CALM      29.87R
DANBURY        CLEAR     58  54  86 CALM      29.91R
WTRBRY/OXFORD  CLEAR     59  50  72 SW3       29.91R
BRIDGEPORT     CLEAR     66  60  81 CALM      29.88R
MERIDEN        CLEAR     59  56  89 CALM      29.89R
NEW HAVEN      CLEAR     62  59  90 CALM      29.88R
CHESTER        FAIR      61  57  88 CALM      29.89R
GROTON         CLEAR     63  61  93 CALM      29.87R
WILLIMANTIC    CLEAR     59  56  89 CALM      29.89R

 IN RI

CITY           SKY/WX    TMP DP  RH WIND       PRES   REMARKS
PROVIDENCE     CLEAR     64  59  83 W6        29.87R
BLOCK ISLAND     N/A     66  63  88 NW5       29.88R
WESTERLY       CLEAR     61  59  93 CALM      29.88R

 IN MA

CITY           SKY/WX    TMP DP  RH WIND       PRES   REMARKS
BOSTON         PTCLDY    68  53  58 W13       29.85R
WORCESTER      CLEAR     62  51  67 W10       29.89R
WESTFIELD      CLEAR     56  55  97 CALM      29.88R FOG
PROVINCETOWN   CLEAR     66  55  68 W7        29.85R
NANTUCKET      CLEAR     71  63  75 N7        29.86R
$$

ANZ330-335-338-340-345-350-353-355-021100-
COASTAL MARINE OBSERVATIONS


STATION/POSITION TIME  SKY/WX   TEMP    WIND        PRES    VSBY  WAVE
                                AIR SEA DIR/SP/G                  HT/PER
                 (UTC)          (F)     (DEG/KT/KT) (MB)    (MI)  (FT/S)
NY HARB ENTRANCE 0850            74 77  310/  8/ 10 1011.1          3/ 8
4S FIRE IS       NOT AVBL
20S FIRE ISLAND  0850            76 76  330/  8/ 10 1010.9          4/ 8
GREAT SOUTH BAY  0900            74 80  340/  2/  4   N/A
23SW MTP         0950            73 73  360/  6/  6 1011.4          4/ 8
HUDSON CANYON    NOT AVBL
KINGS POINT      0900            72 70   CALM  /  1 1010.8
EXECUTION ROCKS  0900            70      CALM  /  2   N/A
CENTRAL LI SOUND NOT AVBL
EASTERN LI SOUND 0900            68 68  330/  4/  6   N/A
ROBBINS REEF     0900            72     270/  6/  6 1010.6
$$


>>>>>>>>>>>>>>>>>>>>>>>>>>>> KEY <<<<<<<<<<<<<<<<<<<<<<<<<<<
>                                                          <
>     SKY/WX - SKY CONDITION/PRESENT WEATHER               <
>     TMP    - TEMPERATURE IN FAHRENHEIT                   <
>     DP     - DEWPOINT IN FAHRENHEIT                      <
>     RH     - RELATIVE HUMIDITY IN PERCENT                <
>     WIND   - DIRECTION AND SPEED IN MPH                  <
>     PRES   - MEAN SEA LEVEL PRESSURE IN INCHES OF HG     <
>     WCI    - WIND CHILL INDEX                            <
>     VSB    - VISIBILITY IN MILES                         <
>     HX     - HEAT INDEX                                  <
>     TC     - TEMPERATURE IN CELSIUS                      <
>     VRB    - VARIABLE WIND DIRECTION                     <
>                                                          <
>>>>>>>>>>>>>>>>>>>>>>>>>>>> KEY <<<<<<<<<<<<<<<<<<<<<<<<<<<




USA.gov is the U.S. government's official web portal to all federal, state and local government web resources and services.